Regional Weather Roundup
Issued by NWS Goodland, KS

Home | Current Version | Previous Version | Text Only | Print | Product List | Glossary Off
Versions: 1 2 3 4 5 6 7 8 9 10 11 12 13 14 15 16 17 18 19 20 21 22 23 24 25 26 27 28 29 30 31 32 33 34 35 36 37 38 39 40 41 42 43 44 45 46 47 48 49 50

000
ASUS43 KGLD 280159
RWRGLD

GOODLAND FORECAST AREA HOURLY WEATHER ROUNDUP
NATIONAL WEATHER SERVICE GOODLAND KS
800 PM MDT SAT MAY 27 2017

...OFFICIAL OBSERVATIONS...

CITY           SKY/WX    TMP DP  RH WIND       PRES   REMARKS
GOODLAND KS    CLOUDY    55  52  89 W10       30.11R
HILL CITY KS   PTCLDY    65  55  70 NW6       30.02R
IMPERIAL NEB   CLEAR     57  52  83 CALM      30.07R
MCCOOK NEB     PTCLDY    61  51  70 NW8       30.05R
AKRON CO       CLEAR     53  40  61 N7        30.16R
BURLINGTON CO  CLOUDY    53  50  89 W6        30.14R
LIMON CO       CLEAR     51  42  71 N9        30.18S
$$

...UNOFFICIAL OBSERVATIONS...

CITY           SKY/WX    TMP DP  RH WIND       PRES   REMARKS
LENORA KS        N/A     63  32  31 MISG        N/A
NORTON KS      PTCLDY    59  50  72 NW6       30.01R
SHARON SPRINGS   N/A     53  50  90 W6          N/A
TRENTON NEB      N/A     59  32  36 CALM        N/A
$$



USA.gov is the U.S. government's official web portal to all federal, state and local government web resources and services.